Regional Weather Roundup
Issued by NWS Newport/Morehead, NC

Current Version | Previous Version | Graphics & Text | Print | Product List | Glossary Off
Versions: 1 2 3 4 5 6 7 8 9 10 11 12 13 14 15 16 17 18 19 20 21 22 23 24 25 26 27 28 29 30 31 32 33 34 35 36 37 38 39 40 41 42 43 44 45 46 47 48 49 50
000 ASUS42 KMHX 262213 RWRMHX WEATHER ROUNDUP FOR EASTERN NORTH CAROLINA NATIONAL WEATHER SERVICE NEWPORT/MOREHEAD CITY NC 600 PM EDT MON SEP 26 2016 NOTE: "FAIR" INDICATES FEW OR NO CLOUDS BELOW 12,000 FEET WITH NO SIGNIFICANT WEATHER AND/OR OBSTRUCTIONS TO VISIBILITY NCZ015>017-031-032-045>047-102-103-262300- NORTH COAST CITY SKY/WX TMP DP RH WIND PRES REMARKS EDENTON NOT AVBL ELIZABETH CITY PTSUNNY 75 64 68 SE6 30.05F KITTY HAWK CLOUDY 77 67 72 S7 30.04F MANTEO CLEAR 76 65 68 S8 30.06F $$ NCZ045>047-081-094-103-104-262300- CENTRAL COAST CITY SKY/WX TMP DP RH WIND PRES REMARKS FRISCO CLEAR 80 62 54 SE10 30.05F $$ NCZ095-097-098-100-101-262300- SOUTHERN COAST CITY SKY/WX TMP DP RH WIND PRES REMARKS BEAUFORT SUNNY 79 69 71 SE7 30.04S CEDAR ISLAND NOT AVBL JACKSONVILLE SUNNY 78 66 66 SE8 30.04R PINEY ISLAND CLEAR N/A N/A N/A E7 30.05R WILMINGTON SUNNY 78 66 66 E8 30.04S $$ NCZ011>013-027>030-043-044-078>080-089-090>093-098-262300- COASTAL PLAIN CITY SKY/WX TMP DP RH WIND PRES REMARKS AHOSKIE MOSUNNY 72 65 77 CALM 30.05S CLINTON SUNNY 81 68 65 CALM 30.03S ELIZABETHTOWN MOSUNNY 80 69 67 SE3 30.02S GOLDSBORO MOSUNNY 79 68 69 E3 30.02S GREENVILLE SUNNY 77 64 65 E5 30.06S HAVELOCK CLOUDY 77 67 71 NE7 30.05S KENANSVILLE CLOUDY 79 68 69 CALM 30.03S KINSTON MOSUNNY 77 64 65 E6 30.04F NEW BERN CLOUDY 77 64 64 E6 30.06S RICHLANDS CLOUDY 79 68 69 SE8 30.04R ROCKY MOUNT CLOUDY 75 65 70 CALM 30.04S WASHINGTON CLOUDY 75 64 68 SE6 30.04F WHITEVILLE NOT AVBL $$ AMZ130-135-150-152-154-156-158-170-250-252-270-ANZ085-086-088-633-658-670-262300- MARINE OBSERVATIONS STATION/POSITION TIME TEMP WIND PRES WAVE SWELL AIR SEA DIR/SP/G HT/PER HT/PER (UTC) (F) (DEG/KT/KT) (MB) (FT/S) (FT/S) CHESAPEAKE LIGHT NOT AVBL 64 E VA BEACH 2150 75 76 150/ 14/ 17 1017.5 3/ 8 2/ 8 DUCK 2148 76 77 160/ 7/ 10 1017.0 2 E DUCK 2141 77 N/A 3/ 8 OREGON INLET 2148 77 77 110/ 6/ 8 1017.8 13E OREGON INLT 2130 77 N/A 3/ 8 3/ 8 HATTERAS CG 2148 79 77 130/ 7/ 10 1017.3 DIAMOND BUOY 2150 79 79 140/ 12/ 14 1017.5 3/ 8 2/ 8 CAPE LOOKOUT 2200 77 100/ 10/ 11 1016.9 BEAUFORT LAB 2148 77 77 120/ 9/ 11 1016.6 30 SE NEW RVR IN 2108 79 83 80/ 10/ 16 1016.9 30 SE NEW RVR IN 2125 83 N/A 3/ 9 27 SE WRIGHTSVLE 2108 79 81 80/ 12/ 16 1016.9 5 SE WRIGHTSVLE 2108 79 81 110/ 10/ 14 1018.0 225 S CAPE HAT 2150 79 83 100/ 17/ 19 1016.5 6/ 8 2/ 9 41 SE CHARLESTON 2150 77 82 110/ 12/ 14 1015.0 4/ 9 3/ 9 $$

USA.gov is the U.S. government's official web portal to all federal, state and local government web resources and services.